CW7911 Weather Reports


Display with metric or nautical units.
time (UTC)temp
F
wind
direction
speed
MPH
gust
MPH
rain 1hr
in
rain 24hr
in
rain mn
in
humidity
%
barometer
mb
20260509004229 40 274 0.0 0.0 0.00 0.00 0.00 64 1008.6
20260509003727 40 274 0.0 0.0 0.00 0.00 0.00 65 1008.6
20260509003225 40 274 0.0 0.0 0.00 0.00 0.00 64 1008.5
20260509002722 41 274 0.0 0.0 0.00 0.00 0.00 63 1008.6
20260509002219 41 274 0.0 0.0 0.00 0.00 0.00 62 1008.3
20260509001711 42 274 0.0 0.0 0.00 0.00 0.00 62 1008.4
20260509001206 42 274 0.0 0.0 0.00 0.00 0.00 60 1008.3
20260509000704 42 274 0.0 0.0 0.00 0.00 0.00 59 1008.3
20260509000156 43 274 0.0 0.0 0.00 0.00 0.00 59 1008.2
20260508235653 43 274 0.0 0.0 0.00 0.00 0.00 57 1008.2
20260508235149 44 274 0.0 0.0 0.00 0.00 0.00 57 1007.9
20260508234646 44 274 0.0 0.0 0.00 0.00 0.00 55 1007.9
20260508234142 44 274 0.0 0.0 0.00 0.00 0.00 55 1008.0
20260508233637 45 274 0.0 0.0 0.00 0.00 0.00 54 1007.9
20260508233134 46 274 0.0 0.0 0.00 0.00 0.00 52 1007.9
20260508232631 47 274 0.0 0.0 0.00 0.00 0.00 53 1007.9
20260508232128 48 274 0.0 0.0 0.00 0.00 0.00 50 1007.8
20260508231625 49 274 0.0 0.0 0.00 0.00 0.00 46 1007.7
20260508231123 50 274 0.0 2.0 0.00 0.00 0.00 40 1007.6
20260508230618 50 274 0.0 0.0 0.00 0.00 0.00 43 1007.7
20260508230115 51 274 0.0 1.0 0.00 0.00 0.00 37 1007.6
20260508225613 51 274 0.0 2.0 0.00 0.00 0.00 36 1007.6
20260508225109 50 274 1.0 1.0 0.00 0.00 0.00 42 1007.6
20260508224607 51 274 0.0 1.0 0.00 0.00 0.00 42 1007.4
20260508224104 51 274 0.0 0.0 0.00 0.00 0.00 37 1007.5
20260508223602 51 274 0.0 1.0 0.00 0.00 0.00 36 1007.3
20260508223059 52 274 2.0 3.0 0.00 0.00 0.00 34 1007.4
20260508222556 52 274 0.0 0.0 0.00 0.00 0.00 35 1007.2
20260508222053 51 274 2.0 2.0 0.00 0.00 0.00 35 1007.3
20260508221549 51 274 0.0 0.0 0.00 0.00 0.00 35 1007.4
20260508221045 52 274 1.0 3.0 0.00 0.00 0.00 35 1007.4
20260508220542 53 274 0.0 0.0 0.00 0.00 0.00 39 1007.3
20260508220038 53 274 0.0 1.0 0.00 0.00 0.00 35 1007.2
20260508215535 53 274 0.0 2.0 0.00 0.00 0.00 34 1007.0
20260508215032 53 274 0.0 0.0 0.00 0.00 0.00 34 1007.1
20260508214530 52 274 0.0 0.0 0.00 0.00 0.00 35 1007.2
20260508214026 52 274 0.0 0.0 0.00 0.00 0.00 34 1007.1
20260508213523 53 274 1.0 3.0 0.00 0.00 0.00 33 1006.8
20260508213019 53 274 3.0 6.0 0.00 0.00 0.00 33 1006.9
20260508212516 53 274 1.0 3.0 0.00 0.00 0.00 35 1007.0
20260508212012 54 274 1.0 6.0 0.00 0.00 0.00 35 1007.1
20260508211508 53 274 0.0 2.0 0.00 0.00 0.00 36 1007.0
20260508211004 52 274 0.0 0.0 0.00 0.00 0.00 35 1006.9
20260508210501 53 274 0.0 2.0 0.00 0.00 0.00 36 1006.8
20260508205957 52 274 1.0 4.0 0.00 0.00 0.00 35 1006.8
20260508205454 52 274 2.0 3.0 0.00 0.00 0.00 37 1007.0
20260508204951 51 274 2.0 2.0 0.00 0.00 0.00 37 1006.8
20260508204448 51 274 1.0 2.0 0.00 0.00 0.00 39 1007.0
20260508203943 51 274 0.0 3.0 0.00 0.00 0.00 39 1006.9
20260508203440 52 274 2.0 6.0 0.00 0.00 0.00 39 1006.7
20260508202936 52 274 0.0 4.0 0.00 0.00 0.00 39 1006.8
20260508202433 52 274 1.0 6.0 0.00 0.00 0.00 39 1006.9
20260508201930 52 274 1.0 4.0 0.00 0.00 0.00 38 1006.9
20260508201427 51 274 0.0 1.0 0.00 0.00 0.00 41 1006.6
20260508200924 51 274 1.0 1.0 0.00 0.00 0.00 41 1006.5
20260508200421 51 274 0.0 2.0 0.00 0.00 0.00 41 1006.4
20260508195916 51 274 0.0 4.0 0.00 0.00 0.00 42 1006.6
20260508195413 51 274 0.0 2.0 0.00 0.00 0.00 40 1006.5
20260508194908 51 274 3.0 3.0 0.00 0.00 0.00 41 1006.4
20260508194406 52 274 1.0 4.0 0.00 0.00 0.00 40 1006.4
20260508193857 52 274 0.0 3.0 0.00 0.00 0.00 38 1006.3
20260508193354 53 274 1.0 2.0 0.00 0.00 0.00 38 1006.4
20260508192850 53 274 1.0 7.0 0.00 0.00 0.00 39 1006.3
20260508192347 53 274 0.0 0.0 0.00 0.00 0.00 38 1006.1
20260508191844 53 274 0.0 1.0 0.00 0.00 0.00 38 1006.1
20260508191342 53 274 0.0 2.0 0.00 0.00 0.00 39 1006.2
20260508190839 53 274 0.0 3.0 0.00 0.00 0.00 40 1006.1
20260508190335 53 274 2.0 6.0 0.00 0.00 0.00 39 1006.1
20260508185831 52 274 2.0 3.0 0.00 0.00 0.00 38 1006.1
20260508185329 53 274 0.0 4.0 0.00 0.00 0.00 38 1005.9
20260508184826 52 274 0.0 2.0 0.00 0.00 0.00 37 1006.0
20260508184323 53 274 1.0 3.0 0.00 0.00 0.00 36 1005.8
20260508183820 53 274 2.0 3.0 0.00 0.00 0.00 35 1005.9
20260508183316 53 274 1.0 4.0 0.00 0.00 0.00 35 1005.8
20260508182812 53 274 0.0 2.0 0.00 0.00 0.00 36 1006.0
20260508182309 53 274 1.0 7.0 0.00 0.00 0.00 36 1005.8
20260508181759 53 274 2.0 4.0 0.00 0.00 0.00 35 1005.8
20260508181256 53 274 1.0 4.0 0.00 0.00 0.00 36 1005.9
20260508180753 53 274 1.0 6.0 0.00 0.00 0.00 36 1005.7
20260508180250 53 274 2.0 3.0 0.00 0.00 0.00 36 1005.8
20260508175746 53 274 1.0 4.0 0.00 0.00 0.00 37 1005.6
20260508175243 53 274 1.0 4.0 0.00 0.00 0.00 36 1005.7
20260508174741 54 274 3.0 4.0 0.00 0.00 0.00 36 1005.8
20260508174238 55 274 0.0 7.0 0.00 0.00 0.00 39 1005.7
20260508173734 53 274 0.0 1.0 0.00 0.00 0.00 38 1005.7
20260508173230 53 274 0.0 6.0 0.00 0.00 0.00 38 1005.9
20260508172727 53 274 1.0 4.0 0.00 0.00 0.00 37 1005.8
20260508172224 54 274 0.0 6.0 0.00 0.00 0.00 37 1005.7
20260508171720 55 274 2.0 4.0 0.00 0.00 0.00 35 1005.7
20260508171217 56 274 2.0 3.0 0.00 0.00 0.00 35 1005.6
20260508170714 53 274 1.0 3.0 0.00 0.00 0.00 37 1005.6
20260508170212 54 274 2.0 4.0 0.00 0.00 0.00 36 1005.6
20260508165708 53 274 1.0 7.0 0.00 0.00 0.00 39 1005.7
20260508165206 53 274 1.0 3.0 0.00 0.00 0.00 39 1005.7
20260508164702 53 274 0.0 0.0 0.00 0.00 0.00 42 1005.7
20260508164158 52 274 0.0 2.0 0.00 0.00 0.00 42 1005.8
20260508163656 51 274 0.0 1.0 0.00 0.00 0.00 42 1005.9
20260508163153 51 274 0.0 1.0 0.00 0.00 0.00 41 1005.9
20260508162649 51 274 3.0 3.0 0.00 0.00 0.00 42 1006.0
20260508162146 51 274 1.0 3.0 0.00 0.00 0.00 41 1005.9
20260508161643 52 274 1.0 3.0 0.00 0.00 0.00 41 1005.7
20260508161142 53 274 0.0 1.0 0.00 0.00 0.00 43 1005.9
20260508160639 53 274 0.0 2.0 0.00 0.00 0.00 41 1005.8
20260508160137 50 274 0.0 0.0 0.00 0.00 0.00 42 1006.0
20260508155633 51 274 0.0 2.0 0.00 0.00 0.00 41 1005.7
20260508155130 51 274 0.0 3.0 0.00 0.00 0.00 45 1005.8
20260508154627 50 274 0.0 2.0 0.00 0.00 0.00 44 1006.0
20260508154123 51 274 1.0 3.0 0.00 0.00 0.00 42 1006.0
20260508153620 51 274 0.0 1.0 0.00 0.00 0.00 43 1005.9
20260508153117 51 274 0.0 2.0 0.00 0.00 0.00 40 1005.9
20260508152609 51 274 0.0 0.0 0.00 0.00 0.00 42 1006.0
20260508152104 51 274 0.0 2.0 0.00 0.00 0.00 42 1006.0
20260508151601 51 274 0.0 0.0 0.00 0.00 0.00 38 1006.0
20260508151058 51 274 0.0 0.0 0.00 0.00 0.00 39 1006.1
20260508150555 51 274 0.0 3.0 0.00 0.00 0.00 39 1006.1
20260508150051 51 274 1.0 3.0 0.00 0.00 0.00 38 1006.1
20260508145548 52 274 0.0 4.0 0.00 0.00 0.00 37 1006.2
20260508145044 51 274 0.0 2.0 0.00 0.00 0.00 35 1006.2
20260508144542 51 274 0.0 1.0 0.00 0.00 0.00 36 1006.0
20260508144039 52 274 0.0 2.0 0.00 0.00 0.00 33 1006.0
20260508143537 54 274 0.0 0.0 0.00 0.00 0.00 33 1006.0
20260508143033 53 274 0.0 4.0 0.00 0.00 0.00 35 1005.9
20260508142530 55 274 4.0 7.0 0.00 0.00 0.00 31 1005.8
20260508142026 55 274 2.0 9.0 0.00 0.00 0.00 30 1006.2
20260508141523 55 274 0.0 4.0 0.00 0.00 0.00 31 1006.1
20260508141021 53 274 2.0 2.0 0.00 0.00 0.00 36 1005.9
20260508140518 53 274 2.0 7.0 0.00 0.00 0.00 33 1006.2
20260508140014 53 274 3.0 4.0 0.00 0.00 0.00 34 1006.4
20260508135510 52 274 1.0 2.0 0.00 0.00 0.00 36 1006.4
20260508135006 53 274 3.0 6.0 0.00 0.00 0.00 36 1006.3
20260508134503 53 274 1.0 7.0 0.00 0.00 0.00 36 1006.5
20260508134000 53 274 0.0 0.0 0.00 0.00 0.00 35 1006.5
20260508133457 53 274 0.0 1.0 0.00 0.00 0.00 37 1006.6
20260508132954 52 274 0.0 2.0 0.00 0.00 0.00 37 1006.4
20260508132452 51 274 1.0 3.0 0.00 0.00 0.00 40 1006.6
20260508131948 51 274 3.0 6.0 0.00 0.00 0.00 41 1006.5
20260508131444 50 274 0.0 1.0 0.00 0.00 0.00 44 1006.4
20260508130941 51 274 2.0 3.0 0.00 0.00 0.00 41 1006.6
20260508130438 49 274 1.0 2.0 0.00 0.00 0.00 43 1006.7
20260508125933 49 274 0.0 3.0 0.00 0.00 0.00 43 1006.7
20260508125430 51 274 3.0 6.0 0.00 0.00 0.00 43 1006.9
20260508124928 48 274 0.0 0.0 0.00 0.00 0.00 44 1006.6
20260508124425 49 274 2.0 3.0 0.00 0.00 0.00 43 1006.8
20260508123923 49 274 0.0 0.0 0.00 0.00 0.00 45 1006.8
20260508123421 50 274 0.0 3.0 0.00 0.00 0.00 43 1006.7
20260508122917 50 274 0.0 2.0 0.00 0.00 0.00 43 1006.9
20260508122414 49 274 0.0 0.0 0.00 0.00 0.00 47 1006.8
20260508121911 48 274 1.0 2.0 0.00 0.00 0.00 45 1006.8
20260508121410 48 274 1.0 3.0 0.00 0.00 0.00 45 1006.6
20260508120907 48 274 1.0 3.0 0.00 0.00 0.00 46 1006.7
20260508120405 49 274 1.0 3.0 0.00 0.00 0.00 45 1006.7
20260508115902 47 274 1.0 2.0 0.00 0.00 0.00 48 1006.7
20260508115400 47 274 0.0 0.0 0.00 0.00 0.00 51 1006.9
20260508114855 46 274 0.0 0.0 0.00 0.00 0.00 54 1006.6
20260508114353 46 274 0.0 1.0 0.00 0.00 0.00 59 1006.7
20260508113849 44 274 0.0 0.0 0.00 0.00 0.00 61 1006.7
20260508113348 44 274 1.0 1.0 0.00 0.00 0.00 66 1006.7
20260508112844 43 274 0.0 0.0 0.00 0.00 0.00 70 1006.5
20260508112341 42 274 0.0 0.0 0.00 0.00 0.00 72 1006.6
20260508111837 40 274 0.0 0.0 0.00 0.00 0.00 75 1006.5
20260508111335 40 274 0.0 0.0 0.00 0.00 0.00 77 1006.6
20260508110832 39 274 0.0 0.0 0.00 0.00 0.00 77 1006.5
20260508110329 39 274 0.0 0.0 0.00 0.00 0.00 78 1006.6
20260508105829 37 274 0.0 0.0 0.00 0.00 0.00 83 1006.4
20260508105326 36 274 0.0 0.0 0.00 0.00 0.00 87 1006.4
20260508104823 35 274 0.0 0.0 0.00 0.00 0.00 88 1006.5
20260508104320 35 274 0.0 0.0 0.00 0.00 0.00 89 1006.5
20260508103817 34 274 0.0 0.0 0.00 0.00 0.00 90 1006.6
20260508103314 33 274 0.0 0.0 0.00 0.00 0.00 91 1006.3
20260508102812 33 274 0.0 0.0 0.00 0.00 0.00 91 1006.2
20260508102309 32 274 0.0 0.0 0.00 0.00 0.00 91 1006.2
20260508101806 32 274 0.0 0.0 0.00 0.00 0.00 91 1006.3
20260508101304 32 274 0.0 1.0 0.00 0.00 0.00 91 1006.2
20260508100801 31 274 0.0 0.0 0.00 0.00 0.00 91 1006.0
20260508100300 31 274 0.0 1.0 0.00 0.00 0.00 91 1006.1
20260508095755 31 274 0.0 0.0 0.00 0.00 0.00 91 1006.1
20260508095253 30 274 0.0 0.0 0.00 0.00 0.00 91 1006.1
20260508094749 30 274 0.0 0.0 0.00 0.00 0.00 91 1005.8
20260508094247 30 274 0.0 0.0 0.00 0.00 0.00 91 1005.8
20260508093743 30 274 0.0 1.0 0.00 0.00 0.00 91 1005.9
20260508093241 30 274 0.0 0.0 0.00 0.00 0.00 90 1005.7
20260508092738 30 274 0.0 0.0 0.00 0.00 0.00 90 1005.8
20260508092236 30 274 0.0 1.0 0.00 0.00 0.00 90 1005.7
20260508091734 30 274 0.0 1.0 0.00 0.00 0.00 90 1005.6
20260508091230 30 274 0.0 0.0 0.00 0.00 0.00 90 1005.5
20260508090728 30 274 0.0 0.0 0.00 0.00 0.00 90 1005.2
20260508090226 30 274 0.0 0.0 0.00 0.00 0.00 90 1005.3
20260508085721 31 274 0.0 0.0 0.00 0.00 0.00 90 1005.4
20260508085219 31 274 0.0 0.0 0.00 0.00 0.00 90 1005.2
20260508084715 31 274 0.0 0.0 0.00 0.00 0.00 89 1005.1
20260508084213 31 274 0.0 0.0 0.00 0.00 0.00 89 1005.1
20260508083710 31 274 0.0 0.0 0.00 0.00 0.00 89 1005.3
20260508083207 31 274 0.0 0.0 0.00 0.00 0.00 88 1005.0
20260508082702 31 274 0.0 0.0 0.00 0.00 0.00 88 1005.1
20260508082200 31 274 0.0 0.0 0.00 0.00 0.00 87 1005.2
20260508081657 31 274 0.0 0.0 0.00 0.00 0.00 88 1005.2
20260508081153 31 274 0.0 0.0 0.00 0.00 0.00 88 1005.2
20260508080651 31 274 0.0 0.0 0.00 0.00 0.00 88 1005.1
20260508080149 31 274 0.0 0.0 0.00 0.00 0.00 88 1005.3
20260508075645 31 274 0.0 0.0 0.00 0.00 0.00 88 1005.0
20260508075142 32 274 0.0 0.0 0.00 0.00 0.00 87 1005.0
20260508074640 32 274 0.0 0.0 0.00 0.00 0.00 87 1004.9
20260508074137 32 274 0.0 0.0 0.00 0.00 0.00 86 1005.1
20260508073634 32 274 0.0 0.0 0.00 0.00 0.00 86 1005.0
20260508073132 32 274 0.0 0.0 0.00 0.00 0.00 86 1005.1
20260508072627 32 274 0.0 0.0 0.00 0.00 0.00 86 1004.8
20260508072124 32 274 0.0 0.0 0.00 0.00 0.00 85 1004.9
20260508071622 32 274 0.0 0.0 0.00 0.00 0.00 85 1005.0
20260508071120 32 274 0.0 0.0 0.00 0.00 0.00 85 1005.0
20260508070617 32 274 0.0 0.0 0.00 0.00 0.00 84 1005.1
20260508070115 32 274 0.0 0.0 0.00 0.00 0.00 84 1005.1
20260508065607 33 274 0.0 0.0 0.00 0.00 0.00 84 1005.0
20260508065104 33 274 0.0 0.0 0.00 0.00 0.00 83 1004.9
20260508064602 33 274 0.0 0.0 0.00 0.00 0.00 83 1005.2
20260508064100 33 274 0.0 0.0 0.00 0.00 0.00 82 1005.1
20260508063557 33 274 0.0 0.0 0.00 0.00 0.00 81 1005.1
20260508063055 33 274 0.0 0.0 0.00 0.00 0.00 82 1005.0
20260508062552 34 274 0.0 0.0 0.00 0.00 0.00 82 1005.2
20260508062048 34 274 0.0 0.0 0.00 0.00 0.00 83 1005.3
20260508061546 34 274 0.0 0.0 0.00 0.00 0.00 82 1005.4
20260508061043 34 274 0.0 0.0 0.00 0.00 0.00 82 1005.3
20260508060540 34 274 0.0 0.0 0.00 0.00 0.00 81 1005.3
20260508060037 34 274 0.0 0.0 0.00 0.00 0.00 82 1005.5
20260508055532 34 274 0.0 0.0 0.00 0.00 0.00 81 1005.5
20260508055030 34 274 0.0 0.0 0.00 0.00 0.00 82 1005.2
20260508054526 34 274 0.0 0.0 0.00 0.00 0.00 82 1005.4
20260508054024 34 274 0.0 0.0 0.00 0.00 0.00 82 1005.5
20260508053520 34 274 0.0 0.0 0.00 0.00 0.00 81 1005.6
20260508053019 34 274 0.0 0.0 0.00 0.00 0.00 81 1005.6
20260508052516 35 274 0.0 0.0 0.00 0.00 0.00 81 1005.7
20260508052012 34 274 0.0 0.0 0.00 0.00 0.00 81 1005.9
20260508051509 34 274 0.0 0.0 0.00 0.00 0.00 82 1005.8
20260508051004 35 274 0.0 0.0 0.00 0.00 0.00 82 1005.8
20260508050501 35 274 0.0 0.0 0.00 0.00 0.00 82 1005.9
20260508045957 35 274 0.0 0.0 0.00 0.00 0.00 82 1005.9
20260508045454 35 274 0.0 0.0 0.00 0.00 0.00 81 1005.5
20260508044952 35 274 0.0 0.0 0.00 0.00 0.00 81 1005.9
20260508044449 35 274 0.0 0.0 0.00 0.00 0.00 81 1005.9
20260508043944 36 274 0.0 0.0 0.00 0.00 0.00 81 1005.8
20260508043442 36 274 0.0 0.0 0.00 0.00 0.00 80 1005.8
20260508042937 37 274 0.0 0.0 0.00 0.00 0.00 80 1005.9
20260508042436 37 274 0.0 0.0 0.00 0.00 0.00 78 1005.8
20260508041932 37 274 0.0 0.0 0.00 0.00 0.00 76 1006.3
20260508041429 37 274 0.0 0.0 0.00 0.00 0.00 77 1006.1
20260508040926 37 274 0.0 0.0 0.00 0.00 0.00 77 1006.0
20260508040423 37 274 0.0 0.0 0.00 0.00 0.00 78 1006.2
20260508035920 37 274 0.0 0.0 0.00 0.01 0.01 77 1006.1
20260508035411 38 274 0.0 0.0 0.00 0.01 0.01 76 1006.1
20260508034908 39 274 0.0 0.0 0.00 0.01 0.01 75 1006.1
20260508034406 39 274 0.0 0.0 0.00 0.01 0.01 75 1006.0
20260508033902 39 274 0.0 0.0 0.00 0.01 0.01 75 1006.0
20260508033401 39 274 0.0 0.0 0.00 0.01 0.01 74 1006.0
20260508032858 39 274 0.0 0.0 0.00 0.01 0.01 74 1005.8
20260508032355 39 274 0.0 0.0 0.00 0.01 0.01 75 1006.0
20260508031852 39 274 0.0 0.0 0.00 0.01 0.01 74 1006.1
20260508031349 39 274 0.0 0.0 0.00 0.01 0.01 73 1005.8
20260508030844 39 274 0.0 0.0 0.00 0.01 0.01 74 1006.0
20260508030342 39 274 0.0 0.0 0.00 0.01 0.01 74 1006.1
20260508025838 40 274 0.0 0.0 0.00 0.01 0.01 73 1005.9
20260508025336 40 274 0.0 0.0 0.00 0.01 0.01 72 1005.9
20260508024832 40 274 0.0 0.0 0.00 0.01 0.01 71 1005.8
20260508024328 40 274 0.0 0.0 0.00 0.01 0.01 70 1005.8
20260508023825 41 274 0.0 0.0 0.00 0.01 0.01 69 1005.8
20260508023317 41 274 0.0 0.0 0.00 0.01 0.01 68 1005.7
20260508022813 41 274 0.0 0.0 0.00 0.01 0.01 68 1005.8
20260508022309 41 274 0.0 0.0 0.00 0.01 0.01 67 1005.7
20260508021807 41 274 0.0 0.0 0.00 0.01 0.01 66 1005.4
20260508021302 42 274 0.0 0.0 0.00 0.01 0.01 67 1005.2
20260508020758 42 274 0.0 0.0 0.00 0.01 0.01 67 1005.7
20260508020257 42 274 0.0 0.0 0.00 0.01 0.01 67 1005.5
20260508015753 42 274 0.0 0.0 0.00 0.01 0.01 67 1005.5
20260508015251 42 274 0.0 0.0 0.00 0.01 0.01 66 1005.5
20260508014747 42 274 0.0 0.0 0.00 0.01 0.01 66 1005.4
20260508014244 42 274 0.0 0.0 0.00 0.01 0.01 66 1005.4
20260508013740 42 274 0.0 0.0 0.00 0.01 0.01 66 1005.3
20260508013237 42 274 0.0 0.0 0.00 0.01 0.01 65 1005.1
20260508012734 42 274 0.0 0.0 0.00 0.01 0.01 66 1005.3
20260508012231 42 274 0.0 0.0 0.00 0.01 0.01 65 1005.5
20260508011729 42 274 0.0 0.0 0.00 0.01 0.01 65 1005.2
20260508011226 42 274 0.0 0.0 0.00 0.01 0.01 67 1005.0
20260508010722 43 274 0.0 0.0 0.00 0.01 0.01 63 1005.0
20260508010221 43 274 0.0 0.0 0.00 0.01 0.01 62 1005.0
20260508005718 43 274 0.0 0.0 0.00 0.01 0.01 62 1004.7
20260508005215 43 274 0.0 0.0 0.00 0.01 0.01 61 1004.7
20260508004710 44 274 0.0 0.0 0.00 0.01 0.01 61 1004.9